Regional Weather Roundup
Issued by NWS

Home | Current Version | Previous Version | Text Only | Print | Product List | Glossary Off
Versions: 1 2 3 4 5 6 7 8 9 10 11 12 13 14 15 16 17 18 19 20 21 22 23 24 25 26 27 28 29 30 31 32 33 34 35 36 37 38 39 40 41 42 43 44 45 46 47 48 49 50

000
ASUS43 KLOT 202308
RWRIL

ILLINOIS REGIONAL WEATHER ROUNDUP
NATIONAL WEATHER SERVICE CHICAGO/ROMEOVILLE IL
600 PM CDT SUN AUG 20 2017

NOTE: "FAIR" INDICATES FEW OR NO CLOUDS BELOW 12,000 FEET WITH NO
SIGNIFICANT WEATHER AND/OR OBSTRUCTIONS TO VISIBILITY.

* THESE STATIONS ARE NOT UNDER NWS QUALITY CONTROL. THEY ALSO MAY NOT
  REPORT WEATHER SUCH AS PRECIPITATION OR FOG.

ILZ001-002-007-009-015-016-024-210000-
NORTHWEST ILLINOIS

CITY           SKY/WX    TMP DP  RH WIND       PRES   REMARKS
MOLINE         PTSUNNY   82  69  64 E7        29.98F HX  85
STERLING*      CLOUDY    76  71  85 CALM      30.01S
SAVANNA*       MOSUNNY   75  70  84 SE5       30.00F
$$

ILZ003-004-008-010-011-017-018-210000-
NORTH CENTRAL ILLINOIS

CITY           SKY/WX    TMP DP  RH WIND       PRES   REMARKS
ROCKFORD       LGT RAIN  77  70  79 E7        30.00S
FREEPORT*      LGT RAIN  72  71  95 SW5       30.03R
ROCHELLE*      CLOUDY    75  70  84 SW7       30.02R
DE KALB*       CLOUDY    77  71  82 E7        30.01R
PERU*          CLOUDY    76  70  80 CALM      30.02R
$$

ILZ005-006-012>014-019>023-210000-
NORTHEAST ILLINOIS

CITY           SKY/WX    TMP DP  RH WIND       PRES   REMARKS
CHICAGO-OHARE  CLOUDY    83  68  60 S6        30.00S HX  86
CHICAGO-MIDWAY CLOUDY    85  68  56 S7        30.00S HX  88
AURORA         CLOUDY    79  73  82 SE8       30.01S HX  82
LANSING*       CLOUDY    82  67  60 SE8       30.00F HX  84
JOLIET*        LGT RAIN  81  75  83 S3        30.02R HX  86
WAUKEGAN       CLOUDY    77  68  73 SE6       30.00S
DUPAGE AIRPORT CLOUDY    79  73  82 S3        30.00S HX  82
KANKAKEE*      MOSUNNY   82  71  69 CALM      30.02R HX  87
WHEELING       MOSUNNY   83  70  64 CALM      30.01S HX  87
MORRIS*        CLOUDY    77  74  89 E3        30.00R
ROMEOVILLE*    LGT RAIN  78  72  80 S7        30.03R HX  81
NORTHERLY ISL    N/A     83  66  56 SE2         N/A  HX  85
$$

LMZ740>746-210000-
SOUTHERN LAKE MICHIGAN

STATION/POSITION SKY/WX   TEMP    WIND        PRES    VSBY  WAVE
                          AIR SEA DIR/SP/G                  HT/PER
                          (F)     (DEG/KT/KT) (MB)    (MI)  (FT/S)
SOUTHERN BUOY              74 72  110/  6/  6 1016.2F         1
WILMETTE HARBOR            76 74  110/  6/ 10   N/A           1/ 2
HARRISON CRIB              83     200/  8/  9   N/A
CALUMET HARBOR             84     150/  5/  6 1015.4F
BURNS HARBOR               83     180/  6/ 10 1016.6S
MICHIGAN CITY              82     170/  7/ 10   N/A
MICHIGAN CITY 6N           79 76  160/  4/  6   N/A           1
ST. JOSEPH                 79 77     CALM     1016.3          0
$$

ILZ025>027-034>036-040-047-049-050-058-095>099-210000-
WEST-CENTRAL ILLINOIS

CITY           SKY/WX    TMP DP  RH WIND       PRES   REMARKS
QUINCY         CLOUDY    82  70  66 S10       29.97F HX  86
GALESBURG*     PTSUNNY   83  71  66 S8        30.00F HX  88
MACOMB*        MOSUNNY   85  71  62 S7        30.01S HX  90
JACKSONVILLE*  MOSUNNY   83  73  72 CALM      30.01S HX  89
PITTSFIELD*    PTSUNNY   85  73  68 S5        30.02F HX  92
$$

ILZ028>032-037-038-041>044-048-051>054-059>061-210000-
CENTRAL ILLINOIS

CITY           SKY/WX    TMP DP  RH WIND       PRES   REMARKS
PONTIAC        CLOUDY    80  77  89 CALM      30.01F HX  87
BLOOMINGTON    PTSUNNY   84  71  65 S6        30.02S HX  89
DECATUR        MOSUNNY   87  71  58 S7        30.01S HX  93
PEORIA         MOSUNNY   85  74  69 SW6       29.99S HX  92
LACON*         CLOUDY    82  72  70 S3        29.99F HX  87
LINCOLN*       PTSUNNY   86  75  69 S6        29.99F HX  95
SPRINGFIELD    PTSUNNY   89  75  63 SW8       30.00S HX  99
TAYLORVILLE    PTSUNNY   86  75  70 S8        30.01S HX  94
$$

ILZ033-039-045-046-055>057-062-063-210000-
EAST-CENTRAL ILLINOIS

CITY           SKY/WX    TMP DP  RH WIND       PRES   REMARKS
CHAMPAIGN      CLOUDY    85  68  56 S8        30.02R HX  88
RANTOUL*       MOSUNNY   87  73  64 S5        30.01S HX  94
MATTOON        CLOUDY    87  73  62 S3        30.01S HX  94
PARIS*         SUNNY     86  71  60 SE5       30.03S HX  91
$$

ILZ079-100>102-210000-
SOUTHWEST ILLINOIS

CITY           SKY/WX    TMP DP  RH WIND       PRES   REMARKS
ALTON          MOSUNNY   86  75  70 S12       30.01S HX  95
BELLEVILLE     SUNNY     90  73  57 SW8       30.01F HX  99
CAHOKIA*       SUNNY     92  72  51 S8        29.99F HX  99
SPARTA*        SUNNY     88  75  67 SW6       30.02F HX  97
$$

ILZ064>066-069>071-074>076-080>082-084>086-088>090-092>094-210000-
SOUTH-CENTRAL ILLINOIS

CITY           SKY/WX    TMP DP  RH WIND       PRES   REMARKS
CARBONDALE     CLOUDY    86  78  77 S8        30.01F HX  98
CAIRO*         LGT RAIN  80  68  67 W6G24     30.02R HX  82
EFFINGHAM*     SUNNY     90  69  49 S6        30.03S HX  95
MT. VERNON       N/A     89  77  67 SW10      30.02S HX 101
CENTRALIA*     SUNNY     90  77  65 S9        30.01F HX 103
SALEM*         SUNNY     91  75  59 S10       30.02S HX 100
METROPOLIS*    LGT RAIN  87  73  63 CALM      30.02F HX  93
$$

ILZ067-068-072-073-078-083-087-091-210000-
SOUTHEAST ILLINOIS

CITY           SKY/WX    TMP DP  RH WIND       PRES   REMARKS
LAWRENCEVILLE  CLOUDY    86  68  54 SW16G25   30.04R HX  89
FLORA*         CLOUDY    82  71  68 S12G18    30.02F HX  87
FAIRFIELD*     CLOUDY    90  74  59 SW3       30.01S HX 100
HARRISBURG*    CLOUDY    88  75  65 S3        30.03F HX  97
ROBINSON*      CLOUDY    87  73  63 SW3       30.03R HX  95
CARMI*         CLOUDY    86  77  73 W5        30.02S HX  97
$$

ABBREVIATIONS USED IN REMARKS
   TC - TEMPERATURE IN CELSIUS
  WCI - WIND CHILL INDEX
   HX - HEAT INDEX
  VSB - VISIBILITY
$$





USA.gov is the U.S. government's official web portal to all federal, state and local government web resources and services.